RH
14 11 10 8 8 8 8 10 12 12 12 11 9 8 8 9 9 10 11 13 14 13 13 13 12 12 11 12 12 12 12 12 12 11 10 8 9 12 13 18 25 25 24 22 17 12 10 13 14 16 16 15 15 13 12 12 11 12 22 26 22 27 25 24 24 14 15 13 12 11 12 25 29 28 29 31 36 37 37 36 39 40 41 51 60 72 75 67
13 10 10 9 8 8 8 10 13 14 12 12 11 8 9 10 9 11 11 13 14 13 13 13 13 13 13 13 13 12 12 10 9 8 9 8 7 11 14 17 24 24 22 19 14 10 10 12 15 16 15 14 14 12 11 11 10 15 25 27 26 30 22 18 17 13 12 11 12 10 10 22 28 29 29 34 39 38 42 44 42 45 49 54 66 74 69 65
11 10 10 9 8 8 8 9 13 16 14 12 11 9 9 10 11 12 13 13 14 13 13 14 14 13 14 13 13 12 9 9 12 11 9 9 7 10 15 18 23 23 21 18 14 13 11 12 15 14 13 14 13 12 11 10 11 13 17 23 27 26 19 14 12 11 10 10 11 10 13 21 24 25 29 35 41 42 45 47 44 47 49 57 73 71 64 65
11 11 11 9 9 9 8 9 15 19 17 13 13 11 9 10 12 12 13 14 13 14 13 14 14 14 14 13 12 9 8 17 25 22 15 14 11 14 20 21 22 22 19 19 17 16 13 12 13 13 15 17 15 13 12 10 11 12 14 21 22 17 16 12 9 10 9 10 10 10 14 16 16 23 31 35 40 45 45 40 35 42 49 57 68 65 60 59
11 11 11 10 9 8 10 15 21 23 20 17 14 12 10 9 10 11 13 13 14 14 14 15 14 14 13 10 9 6 13 27 28 21 19 20 18 19 24 23 22 20 18 19 19 17 14 12 12 14 18 19 15 12 12 10 10 12 14 16 15 13 13 11 9 10 9 9 9 9 10 10 14 27 32 30 36 40 35 32 28 33 42 48 55 57 56 53
12 12 10 9 11 15 22 28 29 26 23 19 15 13 12 10 10 11 11 13 14 14 14 15 13 12 10 8 8 6 18 31 25 20 19 20 20 22 25 25 24 21 18 19 19 16 13 10 13 16 17 17 15 13 11 10 9 12 14 12 10 11 12 10 9 9 8 9 9 9 9 9 17 30 32 24 27 30 25 27 29 28 34 41 48 50 50 48
11 11 13 18 26 35 39 41 40 34 29 24 19 15 13 12 12 10 11 12 12 13 13 12 11 11 9 8 9 9 17 27 28 25 22 20 19 19 23 25 22 18 17 17 15 13 10 12 17 18 17 16 14 12 11 9 8 11 14 11 9 10 11 10 9 9 9 9 8 9 9 9 17 24 26 22 22 27 28 32 35 36 40 43 46 46 43 42
17 22 31 37 42 44 43 44 43 40 38 33 27 19 15 13 13 13 13 13 12 12 13 12 12 11 11 10 13 20 21 23 27 25 23 23 17 12 14 14 12 12 11 10 10 9 11 14 17 18 18 17 13 12 10 11 13 13 13 11 10 9 9 9 8 9 9 9 7 9 10 11 15 18 25 29 26 30 34 36 41 42 44 44 44 43 39 39
35 40 43 43 40 39 39 39 39 38 38 37 33 26 19 14 13 14 15 16 17 16 16 15 13 11 13 12 18 31 29 22 22 19 19 19 13 9 9 9 8 7 7 7 7 9 13 15 16 17 18 17 14 13 11 13 16 13 11 11 10 10 9 9 9 8 9 9 7 9 13 16 17 18 26 34 31 34 38 38 41 41 42 43 41 37 33 34
45 43 40 39 37 36 35 35 35 35 33 33 32 27 20 14 13 13 14 17 19 20 18 15 13 12 13 14 22 34 28 19 18 14 13 11 10 11 10 10 8 6 6 6 9 12 15 16 17 18 19 18 15 14 12 12 14 11 10 11 10 10 9 9 9 9 9 8 7 9 13 16 16 16 23 33 36 37 41 42 41 40 39 38 38 33 27 29
43 39 39 39 36 34 33 34 34 33 31 29 27 22 15 12 12 13 15 16 16 19 18 14 14 13 15 16 23 32 24 17 19 12 9 11 12 13 12 11 10 11 10 10 15 17 17 18 19 19 20 18 14 14 12 11 11 9 10 11 11 12 10 10 10 8 10 8 7 9 9 10 10 12 20 32 40 39 40 44 42 41 39 37 34 30 29 32
42 38 41 40 37 34 33 34 35 34 33 30 28 22 14 11 11 14 17 16 16 17 16 14 15 15 16 17 21 29 22 18 19 13 11 15 18 20 19 17 17 18 17 17 17 17 17 19 19 20 18 16 15 14 12 12 11 10 12 11 14 18 12 10 12 8 8 9 7 7 11 17 15 12 23 35 41 41 40 43 43 42 39 34 30 29 34 36
44 40 42 41 38 36 33 34 36 37 36 35 35 30 21 15 12 13 17 17 16 17 17 15 17 16 18 20 23 26 24 22 21 17 14 15 19 20 18 17 17 17 18 16 15 14 14 16 19 20 16 15 15 13 12 11 9 10 11 13 17 21 16 9 11 10 8 9 7 6 18 31 25 17 31 44 42 42 43 44 43 42 37 30 31 35 37 37
45 44 42 39 38 37 36 34 34 37 38 39 40 39 34 25 17 15 16 18 17 17 19 18 18 18 21 22 23 24 25 25 23 19 16 14 16 14 13 15 14 14 16 14 13 13 13 15 17 16 13 15 12 10 15 14 15 15 11 21 24 16 19 16 12 13 9 10 8 7 18 26 21 19 35 46 42 44 46 45 42 39 38 35 37 39 38 38
37 43 41 36 35 36 36 34 32 33 35 38 39 40 41 37 27 19 15 16 17 17 18 20 22 25 29 23 20 25 24 22 21 19 17 16 14 12 12 13 12 13 13 13 13 13 14 14 14 15 15 14 13 15 21 23 28 27 12 27 38 21 22 21 12 15 11 10 10 9 19 21 14 17 33 43 42 43 43 43 43 40 41 42 41 40 36 37
28 35 37 33 31 30 31 31 31 29 30 34 36 37 44 47 38 27 20 15 14 18 17 19 24 30 34 25 20 25 24 22 20 19 19 17 14 13 12 12 13 12 11 12 12 12 13 14 14 15 11 10 18 22 25 32 43 45 24 22 33 24 22 20 11 15 13 10 10 10 19 21 17 18 29 41 39 39 42 41 41 41 46 47 42 40 37 36
23 27 29 29 26 24 24 25 27 26 27 33 35 37 46 54 49 36 27 20 15 17 18 19 21 27 29 21 19 22 23 23 19 18 19 16 14 13 12 12 12 11 12 12 11 13 12 14 14 14 22 32 37 32 27 38 47 52 47 38 36 28 21 23 19 16 14 12 11 12 16 18 23 24 25 34 36 37 40 39 40 42 46 50 45 40 39 37
19 22 24 24 23 22 22 21 21 22 26 33 34 40 45 48 53 42 30 31 27 21 23 20 19 29 28 18 21 24 23 23 20 18 16 15 15 13 14 13 12 12 13 12 11 14 11 15 20 23 42 51 46 39 35 41 37 36 49 48 43 37 28 27 26 22 18 16 15 14 15 16 24 27 21 24 32 37 39 39 40 43 47 53 51 44 40 39
14 18 19 21 21 21 21 19 19 22 28 33 32 41 42 35 47 48 35 35 34 27 26 23 23 30 28 21 24 24 22 21 21 18 14 15 14 13 16 13 14 12 11 17 18 16 14 16 22 25 37 41 38 41 37 38 34 32 48 50 38 34 33 32 28 27 26 21 20 18 16 17 19 24 23 18 23 33 37 39 40 45 51 55 54 48 42 40
13 14 13 16 18 18 18 18 22 26 30 34 32 38 39 34 45 52 42 37 34 29 26 26 28 29 27 24 22 22 22 20 19 17 13 14 13 15 16 13 15 13 16 27 24 19 17 20 29 30 34 38 41 50 44 40 40 39 48 47 37 33 33 31 25 31 33 20 23 32 25 21 24 34 36 21 18 29 34 39 43 45 50 53 53 49 43 41
13 13 11 13 14 15 19 20 25 30 32 36 35 35 37 38 45 46 40 35 30 27 25 23 26 28 25 22 21 23 26 22 18 16 13 13 14 13 13 14 15 19 31 34 26 27 23 23 36 39 39 40 50 64 57 47 47 42 39 32 31 36 32 28 31 43 42 22 27 42 29 26 42 51 51 32 18 24 30 38 44 45 47 50 50 49 47 46
12 12 11 10 13 16 20 24 29 34 35 35 33 34 34 34 40 42 41 39 30 23 22 20 21 25 22 20 23 25 30 33 24 18 16 12 13 11 11 17 17 25 37 29 28 40 35 33 37 38 45 48 59 72 57 50 55 49 42 32 35 44 34 35 52 58 51 32 32 41 29 35 57 56 53 46 27 19 21 27 35 41 45 48 50 52 51 50
11 11 10 12 17 20 24 29 33 35 34 33 31 32 33 33 38 40 40 41 33 25 22 20 19 21 20 21 23 24 31 36 28 21 18 12 12 12 11 15 19 25 29 23 28 35 33 41 44 42 50 46 52 63 50 45 56 55 43 30 38 46 33 40 57 57 54 41 33 38 34 42 58 53 47 44 31 21 18 19 25 34 40 41 45 50 52 50
11 10 11 16 21 25 31 34 33 33 31 31 30 31 34 36 37 36 37 41 41 36 27 21 20 19 21 22 22 25 26 26 25 20 16 14 12 12 12 15 19 21 21 27 37 32 27 37 41 45 54 46 39 48 45 34 42 58 52 36 41 46 35 40 48 52 63 58 44 39 39 53 59 47 42 38 30 25 21 19 22 27 32 35 40 46 49 49
10 9 11 17 23 30 32 31 31 31 31 32 31 31 34 31 28 30 40 54 60 52 33 22 26 23 21 23 22 22 21 19 20 16 15 15 12 12 13 12 14 21 28 31 34 33 27 28 30 33 47 51 41 45 52 42 39 54 60 51 46 43 39 45 49 54 62 59 49 33 36 68 74 51 44 40 35 33 26 24 23 20 23 30 39 43 46 49
9 10 10 13 21 30 30 26 29 31 31 32 30 32 33 28 26 26 47 78 79 58 34 23 25 22 19 21 20 18 21 21 16 15 16 14 13 13 12 14 15 21 35 35 32 36 33 34 37 32 40 50 44 44 53 52 44 43 52 58 54 48 47 50 49 47 49 48 50 46 41 61 73 57 47 41 35 34 30 30 27 19 18 23 30 35 42 48
9 10 10 11 13 22 24 20 27 33 34 31 29 32 27 24 29 31 53 81 70 43 32 25 20 19 18 18 16 19 25 22 14 14 15 13 14 11 14 25 18 14 27 28 29 38 34 32 40 39 42 46 42 43 50 52 44 40 53 61 53 44 44 54 49 41 48 44 53 71 53 42 58 57 48 45 38 33 30 30 30 23 18 20 22 27 36 42
8 9 10 12 10 15 22 24 32 37 36 32 30 26 17 23 39 49 63 64 41 26 26 21 17 15 16 16 17 19 20 18 16 15 13 13 13 10 15 23 19 20 25 20 26 42 36 25 34 42 39 39 44 51 55 47 36 43 59 55 44 39 46 58 49 43 54 40 43 72 53 33 57 63 52 47 36 32 32 29 30 26 19 18 21 23 28 34
7 10 10 15 20 23 25 32 39 37 33 29 22 14 13 25 42 56 68 55 29 24 22 17 18 16 14 17 17 18 16 15 16 15 12 12 12 12 14 15 18 21 20 21 31 40 30 19 32 41 35 41 51 56 57 41 30 44 56 48 44 54 62 59 46 45 52 39 42 65 49 31 52 66 59 42 30 34 36 31 30 26 19 18 21 21 24 29
7 10 9 18 33 37 35 39 37 29 25 18 11 14 23 39 55 62 63 50 31 25 20 16 18 15 14 17 17 18 16 14 15 13 11 12 11 11 11 11 16 22 34 41 35 33 26 18 32 34 27 41 47 45 49 38 31 39 43 41 42 53 63 69 70 54 40 47 59 63 52 35 42 63 61 42 35 38 34 31 30 25 21 20 21 22 23 26
7 10 9 14 27 33 32 28 22 18 20 17 15 26 38 55 76 74 51 39 37 30 19 18 20 16 14 18 20 20 17 14 14 13 14 14 12 13 12 14 19 31 57 54 31 38 34 18 30 28 18 30 27 26 33 32 38 41 40 44 40 44 53 63 73 52 35 55 65 64 59 40 39 58 57 44 43 40 35 33 31 28 27 24 23 23 23 25
10 10 9 14 21 25 22 16 16 17 20 25 24 35 55 63 67 67 49 34 38 34 20 16 18 14 15 20 20 20 18 18 17 15 18 17 17 21 18 23 30 32 48 48 30 41 40 28 35 25 17 22 18 26 30 29 42 40 38 48 42 43 50 54 62 53 50 59 55 60 59 41 46 54 47 45 41 36 36 33 30 32 32 28 25 22 23 27
19 17 16 24 33 35 32 26 21 16 21 32 31 42 71 72 56 62 61 41 30 26 18 13 13 14 17 20 19 18 17 19 21 18 19 18 20 29 27 31 37 25 32 43 34 34 41 45 42 24 20 21 16 31 32 27 35 27 29 43 40 44 48 55 64 53 50 55 54 60 52 45 54 45 40 49 41 34 36 32 33 36 36 34 28 24 23 24
21 27 26 35 43 40 42 40 27 19 23 32 37 43 56 60 59 61 54 38 26 18 14 14 15 16 18 18 16 17 20 22 21 21 23 21 20 30 34 30 28 26 35 43 38 37 38 43 42 28 25 22 17 28 32 33 34 28 32 34 36 50 51 51 56 43 42 52 53 47 42 53 54 34 40 46 34 35 36 33 37 35 33 32 28 29 29 24
20 33 32 37 42 38 42 44 34 23 19 31 53 61 52 53 66 59 38 32 26 15 14 17 18 22 26 29 24 17 19 22 22 27 30 25 25 34 38 32 28 32 37 37 42 42 29 33 45 32 22 20 16 19 23 25 30 35 37 28 28 45 48 45 49 51 51 50 50 43 45 66 57 35 44 43 33 40 35 31 34 30 28 24 23 30 30 31
23 34 35 36 39 39 40 41 35 21 20 44 66 70 67 62 57 44 30 26 19 13 19 21 22 29 32 41 42 24 17 23 25 32 36 30 31 36 33 30 28 27 30 37 50 47 30 39 49 31 20 22 17 18 17 14 28 40 32 26 31 33 37 42 49 64 62 46 53 52 45 62 54 33 42 45 42 45 37 33 33 29 28 23 23 25 19 23
21 28 36 40 42 43 40 37 30 14 22 57 68 64 73 64 41 32 26 19 16 19 26 24 21 26 26 37 52 35 20 29 29 27 35 35 30 31 30 27 25 24 27 30 39 45 42 49 50 31 21 22 17 19 21 16 25 36 30 31 37 34 45 52 46 63 68 52 62 61 46 54 52 39 46 48 46 49 45 40 35 31 29 27 25 20 13 13
15 22 36 43 43 44 40 33 22 16 36 72 82 74 72 57 32 24 20 14 18 24 30 27 23 25 24 31 47 38 22 30 31 24 33 36 26 26 32 28 24 27 31 26 28 40 44 47 53 44 26 26 26 20 25 29 25 28 30 30 33 40 58 60 47 55 60 52 65 71 58 53 49 47 50 47 46 51 49 43 39 38 34 30 26 17 13 13
12 25 40 40 39 37 32 24 19 29 51 72 85 79 62 51 34 18 16 19 21 25 28 27 22 25 30 30 36 37 26 27 31 28 31 31 24 24 28 28 25 26 31 32 34 45 47 40 50 53 32 28 40 35 37 45 36 29 30 32 43 52 55 51 46 50 51 54 69 69 56 52 54 55 50 47 53 53 47 46 45 42 34 27 24 18 15 13
12 31 45 37 31 28 21 19 25 44 57 64 84 80 49 39 30 14 16 20 20 25 26 25 23 25 31 30 30 33 29 27 28 28 30 29 25 26 27 27 26 25 30 38 43 50 51 39 48 63 46 32 42 46 46 51 49 45 39 38 46 48 45 42 40 46 50 59 74 67 55 61 70 66 51 47 56 53 46 47 44 36 30 25 21 18 16 14
15 35 44 30 25 25 19 19 32 58 71 66 70 62 35 27 26 17 17 18 19 21 21 26 29 30 33 33 31 30 28 30 29 27 29 27 25 28 28 28 27 25 33 44 47 46 47 47 55 63 52 40 45 46 40 40 49 53 43 36 37 40 43 38 39 57 59 54 68 70 60 63 67 66 57 51 57 55 45 41 37 30 25 22 20 18 16 16
22 32 33 26 27 24 18 26 43 59 66 53 41 34 27 25 24 20 17 18 20 19 21 27 29 33 38 34 32 28 25 31 31 28 28 25 24 28 28 27 26 25 33 43 44 44 53 62 58 53 53 50 44 39 33 29 35 41 40 44 46 45 47 43 48 71 68 56 65 67 62 68 71 69 61 51 53 50 36 31 30 26 22 19 19 18 17 17
28 25 24 28 30 22 21 43 64 65 57 44 32 28 26 24 22 22 21 21 22 22 26 28 25 27 30 26 27 26 25 31 30 29 33 27 24 30 31 27 26 30 36 42 42 42 53 61 51 54 69 60 40 38 40 37 35 33 37 48 47 39 46 58 67 72 65 61 66 61 60 72 79 75 59 43 41 38 29 28 27 23 22 20 18 18 19 19
28 23 24 28 26 21 27 43 57 67 64 50 41 36 29 24 22 23 24 22 24 27 31 30 24 23 24 25 27 24 24 31 30 31 37 32 26 30 32 29 33 38 37 42 45 34 40 58 53 50 59 54 49 52 48 49 49 39 35 41 42 37 42 57 66 62 59 65 65 61 64 67 69 69 56 42 39 34 28 29 26 23 22 22 23 23 21 20
29 28 26 24 19 22 35 43 45 59 66 56 54 54 40 28 24 25 27 24 22 26 29 28 24 24 29 31 30 29 29 30 32 35 37 36 34 34 31 31 39 45 43 46 44 28 34 57 56 49 54 54 57 56 51 56 56 44 39 38 38 38 36 44 51 48 59 74 66 61 68 65 59 57 51 48 45 34 28 28 26 26 25 25 27 25 23 24
37 42 40 35 26 23 34 42 44 56 61 57 64 64 47 38 33 28 28 27 25 26 27 29 27 29 37 39 38 42 42 37 39 43 46 49 49 43 35 32 36 43 45 39 33 38 53 60 56 59 64 57 48 45 53 59 47 38 41 38 39 45 45 50 51 46 60 72 61 60 64 54 49 47 43 46 42 35 37 33 25 27 29 29 30 28 28 29
40 52 57 53 43 41 47 47 51 62 58 52 61 58 48 50 47 36 31 27 26 29 32 36 36 36 41 45 44 46 51 54 53 52 56 62 64 52 37 33 35 38 39 30 28 46 59 55 57 61 57 53 48 43 49 50 39 37 42 40 44 51 47 47 49 52 61 57 51 67 69 51 47 46 35 33 33 37 45 37 26 30 34 33 32 31 31 30
39 50 59 58 54 60 62 55 59 68 60 55 64 61 52 55 56 49 39 30 29 33 37 44 46 43 44 45 46 47 53 61 62 62 63 62 66 62 46 41 40 33 33 33 33 43 47 49 58 57 52 57 55 48 51 52 45 42 42 43 47 50 48 46 50 59 62 49 46 65 68 52 47 48 41 34 31 34 37 32 31 37 38 36 35 33 32 32
40 52 59 57 57 61 61 55 60 68 64 63 69 64 55 55 57 52 39 34 40 42 43 50 50 45 46 50 55 57 53 51 51 59 62 55 59 63 52 49 46 34 33 39 40 42 47 59 65 54 51 59 55 51 54 52 49 46 43 47 50 53 57 53 54 61 59 51 50 56 61 55 47 48 47 35 26 30 34 34 38 41 40 39 38 36 38 40
50 64 67 64 64 65 63 59 61 68 68 65 66 62 54 52 52 48 37 33 40 44 48 53 47 42 48 57 60 54 51 54 52 50 52 54 61 63 54 52 50 40 37 42 44 42 45 63 71 55 54 66 62 56 53 51 56 54 48 52 55 57 61 55 55 59 54 51 54 52 56 60 53 48 44 32 28 37 44 44 44 43 43 44 42 42 46 47
60 70 71 77 81 76 70 62 64 77 78 71 72 68 59 53 48 46 43 35 35 42 49 52 50 48 51 57 57 46 42 56 56 42 39 44 47 48 45 46 44 42 47 48 48 48 48 63 75 63 58 68 64 55 55 56 58 54 52 55 53 53 60 57 54 58 53 47 47 46 51 62 63 57 51 49 51 51 52 51 46 43 46 49 48 48 49 49
52 56 60 72 78 76 76 72 74 84 76 64 68 68 61 56 48 46 48 40 34 37 43 47 51 53 50 49 51 43 33 37 37 30 28 31 32 32 33 35 33 37 51 52 48 56 56 55 66 66 61 69 67 56 56 59 57 60 66 62 48 47 56 53 51 58 57 47 44 48 53 61 70 70 64 67 69 62 58 53 46 46 52 53 52 51 49 46
Wind_Speed
11 11 9 7 7 8 9 10 10 10 10 10 9 7 6 5 5 5 5 5 5 5 4 3 4 5 7 8 10 11 11 11 11 15 16 9 7 11 12 14 11 9 9 6 4 4 4 5 6 6 6 5 4 4 4 6 5 4 3 3 1 3 4 4 5 4 2 3 9 14 7 1 3 11 14 14 16 20 16 10 10 3 8 22 21 30 34 27
10 9 8 6 6 8 8 9 10 10 10 10 9 7 6 5 4 4 4 4 4 3 3 2 4 5 7 8 10 11 11 11 13 15 12 6 9 14 13 14 12 10 9 6 4 3 3 4 5 5 3 3 3 3 2 3 5 4 3 2 3 5 5 5 5 5 4 4 11 12 3 2 5 13 15 12 9 14 14 11 13 16 18 21 27 35 30 27
8 8 7 6 6 7 8 9 9 10 9 9 8 7 6 4 3 3 2 3 2 2 2 3 4 5 7 8 9 10 10 11 11 8 5 5 8 12 12 14 13 11 8 5 3 2 1 2 4 3 2 3 2 3 4 1 3 3 3 2 5 6 5 7 10 12 11 6 11 9 4 3 3 10 14 11 8 9 10 12 15 20 25 28 34 35 30 30
8 7 7 6 6 7 8 9 9 10 9 9 9 8 6 4 3 2 2 1 1 2 3 4 4 5 7 8 9 9 10 9 4 1 1 0 3 8 10 12 13 12 9 5 4 2 2 3 4 3 2 4 3 3 5 4 3 1 4 4 6 5 4 10 14 16 14 8 10 5 7 3 1 6 15 18 11 2 7 21 24 27 34 36 37 34 32 31
8 7 6 6 7 8 9 9 10 10 9 9 9 8 6 5 4 2 2 1 1 2 3 4 4 5 6 7 8 7 7 4 2 2 0 1 4 7 8 10 12 11 9 6 4 3 3 3 4 3 2 3 2 1 4 7 5 1 4 7 10 6 3 14 16 13 13 8 8 1 6 3 3 8 19 21 10 9 18 26 30 34 38 38 39 36 34 31
8 7 7 7 8 9 9 9 10 9 9 8 8 7 7 6 5 3 2 1 2 2 3 4 4 5 5 6 7 5 3 2 3 3 0 1 3 6 7 9 9 9 9 6 5 4 4 4 4 3 1 2 2 3 4 7 5 2 6 7 12 10 5 17 17 11 9 4 4 2 3 4 7 9 17 12 5 16 26 28 31 34 36 39 40 38 34 31
8 8 8 8 8 9 9 10 10 10 9 9 8 7 7 6 5 4 3 2 2 2 3 3 3 4 4 5 5 4 5 4 6 4 3 3 3 6 8 9 9 9 7 6 6 5 5 5 4 1 1 2 3 5 7 7 6 5 5 6 13 14 12 22 22 16 13 6 4 3 6 4 8 9 11 6 7 14 24 28 33 35 38 40 39 37 33 30
9 9 9 9 9 10 10 10 10 10 10 9 9 8 7 6 5 5 4 2 2 2 2 2 2 3 3 3 3 5 7 4 6 5 5 4 4 5 7 8 7 7 6 6 6 6 7 7 6 3 1 2 3 4 7 6 3 5 6 8 10 14 16 23 24 23 21 12 6 4 6 4 8 9 4 4 4 17 25 29 33 37 40 40 39 36 32 31
9 9 9 10 10 11 11 11 11 11 10 10 9 8 7 5 4 4 4 3 2 2 2 2 1 2 2 3 4 5 3 2 5 7 5 4 3 1 4 4 4 5 5 6 7 9 9 6 5 3 2 5 5 5 5 2 2 5 9 9 8 13 17 18 21 23 20 12 6 3 2 4 10 7 1 2 8 21 26 29 32 37 40 40 39 35 33 34
8 8 9 10 11 12 13 12 12 12 12 11 10 9 8 5 3 3 4 3 2 2 2 1 1 2 3 3 3 3 1 3 6 7 5 1 2 3 4 4 4 5 6 8 10 11 7 3 4 6 6 7 5 5 3 2 3 7 9 11 13 17 18 15 16 19 14 9 5 5 3 3 6 4 1 3 14 23 25 27 31 35 38 39 37 34 33 33
7 8 9 10 11 12 13 13 12 12 13 13 12 11 9 6 3 3 3 2 2 2 2 1 2 3 4 4 3 1 1 2 5 7 4 4 6 6 6 7 7 6 6 7 8 6 5 6 9 9 5 5 6 6 5 3 7 13 12 10 12 11 11 9 9 11 7 3 3 6 4 1 2 1 5 13 21 25 28 29 31 34 36 37 35 33 32 32
6 6 8 9 10 11 13 13 13 12 12 13 13 13 11 8 5 4 4 3 2 2 2 1 2 4 5 8 8 3 1 1 2 4 4 5 5 5 5 4 4 3 1 2 3 5 7 9 11 10 7 6 5 4 6 8 11 14 9 3 7 7 2 6 4 6 4 2 5 5 3 4 2 4 7 20 26 27 30 33 32 33 34 35 34 33 33 32
4 5 7 8 8 9 11 13 13 13 12 13 13 13 12 10 7 5 4 3 2 1 2 1 3 5 6 7 5 2 2 4 3 1 3 3 2 1 1 1 2 2 4 4 4 4 7 10 11 13 13 8 4 4 8 12 12 11 4 2 3 8 2 4 1 3 3 3 7 6 2 5 7 5 10 24 27 28 29 31 33 32 33 35 34 34 33 32
3 4 5 7 7 7 9 11 12 12 12 13 13 12 11 11 9 6 5 3 2 1 1 2 4 4 7 6 2 3 6 7 7 2 3 3 3 2 2 2 3 4 6 7 5 5 8 11 11 13 13 8 6 7 8 9 8 5 3 2 2 2 3 6 5 2 3 4 7 7 1 6 9 5 14 24 27 29 27 28 31 31 33 34 35 34 33 33
4 4 5 5 6 6 8 10 11 11 12 12 13 14 12 9 8 7 5 3 3 2 2 4 5 6 9 7 3 5 8 7 7 4 2 4 3 2 2 2 4 6 7 9 7 7 11 12 11 10 9 8 6 5 4 5 4 3 2 3 3 1 4 8 5 4 4 3 3 6 0 6 8 5 18 24 25 28 26 26 29 30 32 33 34 34 34 34
5 5 5 5 5 6 7 8 9 10 11 11 13 15 13 8 7 7 6 4 3 3 3 5 6 7 8 6 2 4 7 7 6 4 5 6 5 3 0 3 7 8 10 12 11 12 13 12 10 8 6 5 1 4 4 5 4 4 2 1 4 2 3 5 3 3 3 2 1 2 2 5 6 7 22 25 25 27 25 25 27 29 30 32 34 35 35 34
5 5 5 5 5 6 6 6 7 8 9 11 13 13 11 8 6 6 6 5 4 4 5 6 7 8 7 4 4 4 6 8 6 5 6 5 4 3 3 6 7 8 11 13 12 13 12 8 5 4 2 2 2 4 3 3 3 4 3 2 3 1 1 3 4 5 1 2 4 2 3 7 6 3 21 28 28 26 23 25 29 30 31 32 34 35 36 36
5 5 5 5 5 6 5 5 5 6 7 10 12 10 9 8 5 4 5 5 6 6 6 6 5 6 4 4 7 9 11 9 7 6 5 4 4 4 6 9 9 11 12 10 7 6 7 4 1 1 3 4 3 5 2 3 2 2 1 1 3 2 1 2 4 5 5 2 4 3 5 10 8 3 11 22 27 25 23 26 28 29 31 31 33 35 37 37
5 5 5 5 5 5 5 5 3 3 6 9 11 8 6 10 5 2 4 7 8 5 5 5 4 3 5 9 11 11 12 8 6 7 6 5 6 7 9 11 12 11 6 4 3 2 1 1 2 1 3 3 2 4 6 7 7 5 3 4 2 1 3 4 5 5 3 4 3 4 7 7 6 7 2 8 21 25 22 21 22 22 24 27 31 34 37 39
5 5 5 5 5 5 4 3 2 4 6 8 11 8 6 9 5 2 9 13 13 10 9 11 11 12 14 15 11 8 11 5 5 7 6 6 7 8 10 12 11 7 1 1 3 3 2 1 1 4 6 7 7 5 6 4 5 4 4 4 1 1 3 5 5 6 2 3 3 4 6 5 3 8 7 0 12 17 16 16 18 21 23 28 32 35 39 40
5 5 4 4 3 3 2 2 3 5 7 8 10 8 5 7 4 5 12 16 16 14 14 13 13 16 18 14 9 10 13 5 5 8 5 7 8 6 7 7 4 3 3 2 2 2 3 1 5 8 9 7 5 4 5 4 4 3 3 2 3 0 3 5 4 6 3 3 3 4 3 5 5 6 8 4 4 10 16 18 20 24 27 29 34 36 36 35
5 4 3 2 2 2 2 3 4 6 7 7 8 8 5 6 4 6 9 12 17 18 13 11 12 16 18 15 12 14 12 6 8 11 8 8 10 7 4 3 2 2 3 2 2 4 4 3 10 9 5 3 2 3 5 5 5 3 2 2 3 1 3 6 5 6 4 3 3 4 2 5 7 6 7 7 4 6 15 22 26 28 28 28 32 33 31 30
4 3 1 1 1 2 2 3 4 5 7 7 7 8 7 5 4 8 9 9 15 16 11 9 12 16 17 15 12 11 10 6 8 11 10 11 11 8 5 3 2 1 2 2 3 0 2 6 9 3 6 5 2 2 5 4 3 2 3 2 3 3 1 3 5 6 4 2 1 1 4 5 6 5 6 7 6 4 7 18 27 31 31 32 34 32 32 33
3 2 0 2 2 1 2 2 4 4 4 5 5 7 8 7 7 11 11 6 7 10 7 7 9 13 16 13 10 8 9 9 8 8 9 12 11 6 5 4 3 1 3 3 6 4 6 9 4 2 5 6 2 2 4 4 1 2 2 4 3 4 2 4 4 6 5 5 2 4 5 6 5 4 6 5 5 6 3 6 17 27 33 36 34 32 34 36
2 1 2 3 3 3 1 2 4 4 2 2 3 4 8 11 11 11 8 2 3 6 3 3 6 10 12 10 10 9 7 9 12 11 10 12 11 5 3 4 3 3 5 4 6 2 8 8 3 2 3 4 5 4 4 6 2 4 3 6 7 6 4 2 2 4 5 5 4 3 2 5 5 3 6 5 4 5 5 3 10 18 24 30 32 34 35 37
2 1 2 4 5 4 1 1 2 2 1 2 5 6 9 13 12 9 4 3 2 4 1 2 3 5 7 7 9 6 2 5 10 13 13 11 11 7 2 2 2 3 4 4 3 1 5 5 2 2 4 3 5 4 5 6 4 2 5 7 7 5 4 3 2 3 2 2 4 2 3 4 6 4 6 5 5 7 6 5 10 15 17 22 30 36 37 38
2 2 2 4 6 6 3 2 2 3 4 6 8 9 11 12 9 5 2 4 3 4 1 2 2 2 5 6 8 6 1 3 3 7 12 10 11 11 6 2 1 3 3 3 1 2 2 5 5 2 1 3 4 4 5 7 7 2 5 6 7 5 5 5 5 3 2 3 3 4 3 2 3 5 6 5 6 9 9 8 10 15 19 18 23 33 38 41
3 2 2 3 4 5 4 3 3 5 7 10 11 11 10 7 4 2 2 3 2 3 1 2 3 4 5 5 9 9 2 2 1 2 9 10 11 10 5 5 5 4 2 4 3 5 1 2 4 0 3 2 4 6 7 8 4 6 6 6 5 4 5 6 6 3 0 1 3 5 2 2 4 6 5 5 4 7 9 10 9 13 21 21 19 25 35 41
3 3 2 2 2 2 3 3 5 7 10 12 12 10 7 4 3 2 4 2 2 2 1 2 2 4 4 2 7 10 5 2 1 2 5 9 13 8 2 6 6 3 0 4 4 6 3 5 5 4 3 3 6 5 7 9 4 4 4 4 3 4 4 4 5 3 2 2 4 6 1 2 4 5 4 3 2 6 7 7 8 14 21 22 19 19 29 39
3 3 2 1 2 1 1 4 6 8 10 12 12 9 5 2 2 4 2 1 1 2 2 1 3 4 2 1 2 5 4 3 3 5 5 5 9 7 2 3 3 4 1 3 2 5 5 4 3 4 4 6 6 4 5 7 5 3 5 5 5 5 4 3 2 3 2 2 6 7 4 3 2 5 4 3 3 4 4 6 9 13 20 24 22 14 22 36
2 2 2 0 2 3 4 5 7 8 9 10 10 6 2 1 3 5 1 2 1 3 4 2 4 5 1 1 3 3 2 3 2 6 6 2 3 3 1 1 1 4 3 5 2 5 7 3 2 3 5 4 3 1 1 1 2 5 5 4 2 3 4 4 4 3 1 5 7 6 3 4 2 4 4 5 5 4 4 6 9 11 18 23 22 13 13 32
3 1 1 3 2 2 4 4 6 7 7 8 9 4 1 1 2 1 2 2 1 2 3 2 3 4 3 1 1 4 3 3 2 3 5 3 2 3 2 4 2 3 3 3 2 5 4 4 3 4 3 4 4 0 3 6 6 5 4 5 3 2 3 2 3 1 2 5 5 3 2 2 4 6 6 6 7 8 6 7 10 9 14 21 23 12 7 22
3 1 3 3 4 6 7 8 8 7 6 8 7 3 4 4 0 3 2 2 1 2 2 3 3 2 2 4 4 5 3 2 4 2 1 1 2 4 4 3 5 2 3 3 0 3 3 5 5 4 3 2 5 3 2 3 1 3 4 4 3 1 1 2 3 1 3 5 4 2 2 2 3 3 5 6 6 7 6 5 4 8 15 24 27 16 1 12
2 1 1 1 3 7 8 9 11 10 9 9 6 3 4 2 3 3 2 2 2 2 2 2 4 4 4 4 2 4 3 2 5 4 1 1 0 3 4 3 3 3 2 1 1 1 0 4 3 1 2 1 3 4 6 4 3 4 4 5 4 4 3 3 3 2 3 4 4 3 1 2 2 1 5 7 5 5 5 7 17 23 24 29 33 28 13 3
3 2 3 3 4 7 8 10 13 12 12 10 6 4 2 2 3 1 2 3 1 2 3 3 3 4 5 3 2 3 3 2 5 5 2 1 1 3 2 3 2 3 4 2 2 1 1 5 6 4 2 2 3 3 5 6 2 3 2 4 2 4 5 2 2 4 3 1 3 2 2 3 3 3 6 6 3 7 10 16 24 26 28 34 35 34 29 15
6 5 5 4 4 7 9 11 14 13 12 8 6 3 2 3 2 2 2 2 1 1 3 5 4 4 4 4 3 5 3 1 4 4 2 1 0 2 2 2 2 2 5 3 3 1 1 4 6 4 3 2 3 1 1 2 1 1 1 2 4 3 6 3 1 0 3 1 3 1 2 4 1 1 6 5 5 8 11 16 20 21 28 33 30 30 34 30
7 7 5 4 4 7 9 12 14 14 9 5 5 1 3 3 3 3 2 0 1 1 4 3 2 1 2 3 3 5 5 3 4 3 2 3 2 2 3 3 2 1 2 2 2 2 3 3 6 0 1 3 1 5 4 4 3 4 1 4 3 1 4 3 0 3 4 1 4 1 3 4 1 1 5 6 6 7 8 9 13 18 24 26 25 28 31 32
8 6 3 2 4 7 10 12 13 11 5 4 2 2 2 2 2 2 2 2 1 2 5 1 2 0 1 1 3 5 4 3 3 3 2 2 1 1 1 2 2 5 3 3 2 1 3 2 7 1 2 5 4 5 2 7 5 4 3 2 1 1 1 1 1 0 1 2 3 3 2 3 3 4 2 1 3 4 6 6 9 12 15 18 21 27 30 30
9 4 2 3 4 6 9 10 10 6 2 3 0 2 1 3 4 8 9 4 0 3 2 3 1 1 0 1 3 3 3 1 2 3 1 1 2 1 3 1 3 8 8 5 4 2 2 2 5 4 2 3 5 2 2 4 6 4 2 3 2 3 3 0 1 2 2 3 2 4 3 2 5 5 6 6 5 4 5 6 6 6 10 15 19 23 26 27
7 3 2 1 3 4 8 10 6 2 2 1 3 2 2 2 5 12 14 9 2 1 0 3 2 1 2 1 1 1 1 0 0 1 1 0 3 3 6 5 3 6 8 6 4 1 2 2 4 6 4 2 2 0 4 3 1 2 3 3 3 1 1 0 0 2 2 3 3 1 2 4 5 4 6 7 6 5 5 5 4 5 10 14 17 21 23 24
8 3 1 2 4 4 8 7 2 2 1 1 1 2 3 3 4 8 12 11 5 1 1 3 4 3 2 1 1 1 0 0 1 0 1 1 1 1 6 8 4 4 6 6 4 1 1 1 2 3 4 2 4 4 4 5 4 4 2 1 1 1 1 1 2 2 1 2 3 3 2 6 5 2 2 5 5 5 5 6 5 7 12 13 16 18 19 21
8 3 2 5 6 5 7 4 1 2 2 1 2 4 5 5 3 4 7 10 7 2 1 2 3 2 2 2 2 1 2 0 2 1 2 1 1 2 6 14 11 4 2 2 2 1 2 3 2 2 3 4 7 6 3 4 3 5 2 1 2 2 3 3 3 3 1 1 1 4 1 5 5 3 2 3 4 5 4 6 6 8 12 14 16 16 18 19
9 7 5 5 5 5 5 2 3 4 0 2 5 4 5 4 2 4 5 5 5 3 2 1 1 1 1 2 1 2 2 1 3 2 2 2 1 2 10 18 15 7 3 2 3 1 2 3 2 2 3 4 8 6 2 1 4 6 2 2 4 2 3 5 5 2 2 2 1 2 1 5 5 4 2 3 3 2 2 4 6 7 9 13 14 14 16 17
12 12 7 4 7 6 2 1 1 2 3 5 4 3 4 3 2 4 3 2 3 1 0 1 2 1 0 1 2 2 2 1 2 2 1 2 1 7 17 19 12 6 3 0 2 1 1 0 2 1 4 5 7 6 5 5 3 4 0 2 2 2 4 2 1 3 1 3 4 4 3 5 4 5 4 2 2 3 2 2 4 6 8 10 11 12 13 13
11 9 6 6 7 3 4 4 3 2 2 4 3 4 4 2 2 5 4 4 3 2 1 2 1 1 2 2 2 1 1 2 1 2 1 1 2 5 16 16 11 8 4 2 3 1 1 1 2 2 2 3 2 3 3 3 1 1 0 1 1 1 2 0 1 3 1 3 3 4 4 4 5 5 6 5 4 6 6 2 2 5 7 9 9 10 10 12
5 3 4 7 8 9 10 9 8 2 1 3 3 3 2 1 3 7 6 3 5 3 2 3 3 2 4 4 3 3 3 2 2 1 1 3 2 3 11 11 12 13 10 12 13 5 3 1 2 5 5 6 5 6 5 3 1 3 2 2 2 2 1 3 3 2 3 3 2 4 5 3 7 6 5 5 4 5 7 4 1 4 6 7 7 7 9 11
2 1 2 4 6 6 7 10 11 5 1 1 1 2 3 2 3 5 4 2 5 6 5 5 6 3 2 3 2 1 3 3 3 2 0 2 3 4 9 7 8 14 14 14 16 6 4 2 2 5 5 7 7 7 5 1 3 5 4 3 5 5 3 5 4 5 4 3 5 6 5 4 7 6 4 6 6 6 6 4 3 3 5 6 6 7 9 9
3 1 2 2 2 0 2 6 9 6 3 2 1 1 4 4 3 3 3 1 4 7 4 3 6 4 1 2 3 1 2 3 3 2 1 2 2 4 7 4 4 13 14 11 11 6 4 2 3 3 4 6 5 6 5 3 3 5 5 6 6 6 5 6 7 6 6 5 8 6 6 7 7 5 5 7 7 7 7 5 4 3 5 8 8 9 10 10
4 1 1 3 2 2 2 6 7 4 3 3 2 3 4 5 5 4 3 2 3 5 4 1 1 2 1 2 4 3 0 0 2 3 1 1 3 2 4 3 2 10 12 7 6 4 3 2 3 1 3 5 5 5 4 4 4 4 5 7 6 7 8 8 7 6 7 8 9 6 7 9 7 6 8 11 12 10 5 1 2 4 7 9 10 10 10 10
5 3 4 6 4 3 4 6 3 2 3 4 3 3 3 4 5 5 5 3 1 3 4 2 3 3 1 3 5 3 4 5 4 2 2 1 2 1 1 2 2 5 7 3 2 4 2 2 2 2 3 6 6 5 4 3 4 5 7 6 5 6 7 6 4 4 5 7 8 7 7 9 6 6 10 14 13 5 2 3 3 4 7 8 8 8 9 9
5 4 6 6 3 4 5 4 3 3 2 4 2 2 3 3 5 6 4 3 4 1 0 2 4 2 2 3 3 4 7 7 7 5 5 4 3 4 3 2 1 3 4 1 1 2 2 1 2 4 3 6 4 5 6 4 2 6 7 5 7 7 6 5 4 5 6 6 7 6 5 6 6 4 5 6 4 2 4 2 2 4 6 6 6 7 8 10
4 1 4 3 2 4 4 3 3 3 1 3 4 4 3 4 7 6 2 2 5 4 1 4 4 1 2 2 1 3 6 5 5 7 7 8 8 7 6 6 4 2 1 1 1 1 2 1 1 1 2 6 4 3 5 5 5 8 7 8 10 10 7 5 4 5 7 6 4 5 5 6 4 2 2 1 2 1 1 1 3 5 4 4 5 7 9 12
Wind_Direction
342 342 340 340 349 352 355 359 356 354 352 349 344 338 326 307 286 277 271 264 252 242 242 251 251 254 262 272 276 279 282 280 275 265 270 281 233 219 202 191 187 187 195 195 206 219 208 201 188 197 228 240 253 257 230 222 203 181 121 103 183 231 224 196 197 212 250 295 301 318 341 236 149 113 121 128 121 122 125 111 132 149 157 169 165 155 156 153
343 345 343 346 352 355 358 0 359 357 354 350 347 341 334 320 297 284 271 257 242 233 233 242 245 255 268 277 283 288 292 287 281 271 273 284 226 210 197 191 188 192 198 190 198 220 207 202 198 207 257 268 254 254 245 215 195 180 115 120 207 224 219 203 217 260 281 288 303 307 316 209 146 122 129 128 107 113 104 92 117 118 131 152 152 152 156 156
349 352 351 355 357 358 358 360 1 360 357 354 352 347 342 335 316 297 277 256 238 230 230 245 251 264 275 282 293 297 303 299 292 284 276 278 230 204 191 190 189 192 191 184 197 225 215 185 200 221 312 300 266 276 296 213 202 206 144 163 239 229 235 252 247 262 270 270 308 325 103 154 143 133 137 126 109 117 124 132 129 127 137 147 153 156 159 162
355 0 1 1 359 1 2 2 2 2 3 360 358 353 346 340 328 309 289 268 243 233 235 253 260 274 282 291 300 302 315 320 315 311 255 307 188 192 191 191 193 191 183 189 207 231 252 200 207 248 316 294 278 289 289 241 226 205 157 188 235 229 239 263 258 261 272 286 303 343 103 139 245 155 144 130 112 76 185 167 159 153 152 153 158 162 165 169
4 8 12 10 7 9 9 7 4 3 4 2 2 357 352 345 332 320 310 295 254 248 254 266 272 285 292 297 303 309 332 0 32 40 84 123 156 190 198 198 202 195 185 193 215 239 255 225 221 268 304 283 298 309 260 241 229 240 231 219 238 245 250 270 274 278 285 288 282 76 110 180 160 159 152 142 141 194 196 181 170 165 162 162 164 166 169 173
17 21 26 24 20 20 17 14 8 6 4 4 5 360 357 348 337 330 319 305 267 258 263 272 283 294 298 303 312 316 334 24 344 355 351 226 183 199 205 206 209 200 189 193 220 241 254 232 221 262 298 271 238 207 253 257 223 234 270 244 254 254 242 273 278 290 302 295 270 136 136 187 137 157 168 168 210 195 189 180 172 169 167 167 166 167 170 174
33 37 40 37 33 27 21 17 13 11 7 5 4 1 359 352 347 340 330 320 274 263 271 280 295 299 302 311 329 308 280 313 341 340 311 282 226 221 218 215 214 205 192 196 221 230 229 209 204 259 352 290 243 224 266 272 216 208 268 262 270 264 251 272 277 279 287 285 280 126 125 151 140 163 185 232 267 194 181 174 169 167 166 166 165 167 170 174
45 48 47 41 35 28 19 16 12 9 7 3 1 359 357 353 352 347 339 323 286 274 275 288 300 292 304 314 335 313 287 313 351 342 320 292 268 238 213 209 205 198 189 197 211 203 206 207 220 237 154 266 255 250 281 297 241 206 243 260 272 269 263 275 279 275 273 263 249 136 118 151 155 159 177 290 230 176 174 170 167 165 165 167 166 168 172 174
51 50 46 38 32 26 19 14 11 10 7 2 358 354 356 355 355 353 340 323 307 297 291 304 291 269 286 299 323 326 301 0 358 347 337 302 292 199 174 178 170 167 173 185 188 187 201 213 227 247 265 280 275 270 284 306 264 218 232 257 268 267 267 272 273 270 262 242 207 127 78 138 145 146 80 346 165 167 169 166 166 166 166 168 169 171 175 177
49 46 41 34 30 25 20 16 14 14 12 8 2 355 356 358 0 359 341 327 312 308 311 293 266 260 275 298 333 351 54 50 12 6 4 3 79 101 113 110 122 132 157 171 175 183 209 244 284 308 301 293 285 272 272 178 251 276 267 273 276 267 263 261 260 259 245 219 186 135 149 178 148 148 271 167 160 166 163 160 165 166 167 169 171 175 178 179
43 40 35 30 28 25 22 19 17 18 17 16 13 6 6 6 8 7 353 340 319 313 309 269 273 278 281 293 286 290 20 28 21 28 45 82 84 81 87 92 99 106 136 164 179 207 272 291 302 312 299 307 312 281 274 266 284 296 296 294 293 279 254 243 238 238 220 194 194 141 138 228 150 199 212 169 161 168 163 159 166 167 168 171 174 178 179 180
33 30 27 26 25 24 22 21 21 20 18 17 16 16 16 16 15 10 8 356 333 310 291 277 304 300 297 289 267 251 355 304 16 51 77 94 88 74 77 84 81 83 114 204 242 281 302 300 296 293 286 303 317 294 290 311 313 304 305 292 312 346 262 228 205 205 191 186 201 145 33 327 257 268 190 163 161 168 166 162 168 170 171 174 177 180 181 183
15 18 16 18 19 19 19 21 25 23 19 18 14 14 15 17 17 12 16 13 356 324 313 326 314 307 305 293 262 197 252 261 267 119 120 131 139 96 20 314 310 299 290 294 314 320 309 301 289 285 291 284 265 292 300 316 325 313 323 137 320 5 341 253 308 193 181 213 191 151 345 286 271 283 153 157 161 163 164 166 170 172 173 176 180 182 183 187
346 354 359 7 11 13 13 16 22 23 21 18 14 11 8 9 10 11 17 20 17 344 341 333 311 307 297 283 221 234 257 255 262 241 157 178 183 200 239 264 287 290 290 294 315 321 304 303 296 289 288 268 268 303 311 329 344 319 332 48 19 22 278 301 325 196 172 239 191 142 218 253 275 280 155 162 166 164 167 171 173 174 176 178 181 183 184 185
325 326 338 355 2 6 8 6 10 16 16 11 10 8 360 357 359 6 12 17 23 343 323 312 309 321 303 285 241 251 256 250 265 283 215 215 227 216 209 273 295 306 304 296 300 304 302 304 294 280 279 277 296 331 344 342 353 0 354 330 343 73 272 303 308 200 191 272 186 132 170 263 276 228 168 168 171 170 171 176 178 178 180 181 181 182 182 181
317 314 318 335 347 353 358 358 358 3 6 5 4 0 355 350 345 354 3 9 7 329 315 306 309 331 310 292 313 259 257 264 275 279 252 245 251 232 202 299 299 311 310 302 295 292 294 298 285 273 285 294 324 75 39 359 343 0 55 262 307 3 326 313 322 255 219 282 287 154 185 257 287 193 171 173 178 178 176 180 184 184 184 185 183 182 182 181
306 304 303 313 323 332 339 343 349 353 357 0 2 359 355 352 341 347 2 8 358 331 314 299 297 310 290 277 340 335 303 289 274 261 253 258 265 269 295 293 305 312 310 306 293 283 281 285 280 271 320 358 71 83 41 349 323 321 24 56 291 297 343 317 313 313 314 180 239 241 201 233 286 177 170 181 185 182 184 187 189 189 189 188 185 184 185 185
299 294 295 299 308 320 329 334 341 348 352 356 0 1 0 3 359 337 353 357 347 335 314 292 289 311 281 270 317 331 330 304 271 261 248 247 256 266 277 282 299 303 309 317 302 281 265 272 353 325 359 2 26 77 126 236 208 248 317 57 319 316 338 297 277 308 357 340 234 215 232 244 278 305 171 186 193 190 193 195 194 193 191 190 188 188 188 189
303 293 292 295 306 320 330 339 345 355 359 1 2 9 13 7 357 307 338 328 314 313 306 282 267 287 274 288 308 327 334 315 261 250 231 231 242 248 260 269 282 288 311 337 314 331 204 272 26 339 313 295 248 138 175 209 181 182 181 150 168 314 296 279 258 278 5 13 293 215 233 259 281 290 301 180 194 200 203 201 200 199 193 192 191 192 193 195
312 305 302 301 308 321 338 358 12 10 9 10 11 19 16 3 359 308 326 311 298 296 291 280 273 277 278 289 308 330 334 321 238 240 226 225 233 241 249 254 268 281 321 173 259 329 87 146 273 226 233 237 233 201 182 186 159 149 117 117 143 133 297 286 272 296 45 92 305 253 239 285 297 271 297 230 180 194 203 201 203 201 196 195 196 198 198 200
321 316 317 321 325 341 12 34 33 21 14 15 19 26 19 9 9 322 323 313 308 308 296 287 279 275 275 280 293 310 317 310 242 250 241 222 213 221 237 231 239 274 284 229 221 329 54 154 246 230 226 225 224 193 150 115 103 101 116 89 344 340 273 275 259 307 1 113 294 299 255 270 276 263 288 314 153 173 191 196 200 202 201 200 200 202 202 202
331 326 333 344 8 41 74 64 42 26 17 16 21 32 28 9 354 323 321 308 308 311 301 288 273 266 268 272 283 293 293 281 262 260 244 213 199 203 209 160 149 233 294 15 38 347 7 266 252 240 205 138 103 136 118 98 95 75 105 87 339 266 283 298 293 317 1 89 289 321 342 276 274 271 280 286 256 190 190 198 205 203 202 206 207 206 203 201
336 343 355 33 86 89 101 59 25 18 28 33 30 37 27 357 335 328 320 290 295 306 296 270 261 264 270 276 285 280 260 242 262 263 243 213 200 206 198 132 116 240 337 64 149 14 316 251 248 222 137 124 82 118 114 100 96 82 116 121 286 262 280 290 296 321 349 15 255 7 4 306 301 307 285 278 271 257 198 200 208 207 207 211 211 210 204 200
336 357 159 169 156 146 113 37 10 22 53 58 44 33 11 341 323 324 318 283 285 304 294 258 256 266 268 276 284 262 241 236 245 259 240 211 196 194 204 166 110 255 262 164 151 174 251 256 257 95 134 158 183 180 144 153 229 301 164 154 210 240 215 216 272 320 342 348 14 74 18 321 326 336 294 313 329 298 279 203 208 209 214 216 213 212 209 205
327 343 201 203 206 198 121 12 11 39 99 95 23 352 347 338 325 320 320 323 293 298 299 245 251 262 260 269 270 247 240 243 240 250 247 221 204 183 193 176 142 254 252 156 128 191 259 271 283 255 235 170 168 215 200 173 197 308 244 193 196 210 209 210 323 7 25 350 327 47 30 291 316 325 268 294 349 298 299 279 232 223 220 219 216 214 212 208
312 298 223 227 227 219 235 322 340 4 226 276 322 325 334 336 331 317 318 42 333 286 292 201 218 255 253 254 247 228 232 252 242 245 245 235 219 200 180 169 162 250 230 156 127 212 258 293 18 209 243 175 172 225 224 168 137 304 246 202 183 160 136 140 109 69 86 260 294 47 146 248 317 314 268 301 334 299 296 287 270 265 249 227 220 217 211 209
315 303 253 243 240 235 244 257 266 289 289 299 315 326 331 334 340 319 319 40 341 289 297 206 194 236 251 238 206 173 127 278 265 235 226 221 208 197 203 235 205 244 205 117 4 273 266 327 1 50 96 131 172 228 218 152 124 234 236 165 149 140 146 157 139 138 209 237 315 14 114 192 298 277 280 338 336 306 303 294 284 281 276 260 235 222 213 210
324 316 299 272 253 236 228 223 254 297 309 306 311 324 331 335 339 341 82 67 299 289 308 242 236 247 261 245 206 198 234 284 7 224 211 201 193 185 204 226 198 217 199 121 245 265 264 306 296 248 87 130 199 215 186 144 133 243 215 152 154 160 163 153 129 148 246 58 301 321 62 171 270 276 306 355 328 292 287 283 284 284 289 290 267 233 217 213
331 324 321 291 243 210 213 239 282 304 306 306 312 320 329 336 329 30 86 89 278 297 309 291 301 267 265 261 219 229 253 256 197 198 183 185 197 192 222 233 190 178 187 115 194 245 245 234 227 158 135 213 229 220 169 156 190 238 166 112 52 57 92 108 117 135 55 64 244 266 217 183 268 285 311 347 284 262 268 275 278 283 295 306 299 257 222 213
336 338 336 254 220 218 256 288 299 302 302 310 316 318 330 343 24 65 77 243 265 312 307 306 327 306 283 44 274 255 241 235 224 201 190 194 213 217 226 235 143 121 28 22 193 247 287 270 216 165 194 211 210 203 166 172 182 131 94 64 32 25 36 45 76 105 78 291 249 244 208 167 266 283 261 234 231 247 278 294 287 291 308 323 330 301 231 213
342 341 357 242 229 267 291 290 290 299 311 320 321 323 347 15 71 86 174 239 238 324 339 322 314 338 343 202 275 294 273 265 232 181 195 228 244 248 222 241 53 69 8 349 305 304 330 311 230 237 229 187 143 166 41 28 77 89 80 68 53 335 9 20 356 43 134 259 261 243 187 133 197 260 254 252 271 270 246 268 282 298 318 336 358 354 243 215
349 338 57 75 74 13 346 328 307 308 321 334 331 331 80 54 29 92 260 307 298 290 329 288 292 336 326 335 332 304 302 293 283 171 186 202 215 232 211 201 176 32 331 293 302 332 330 255 266 307 263 149 118 293 334 359 30 81 99 85 81 326 1 351 302 319 211 250 259 220 142 134 221 247 262 268 282 281 262 265 278 299 336 3 27 27 246 214
353 60 111 86 53 31 19 9 356 347 349 354 347 355 83 76 337 232 271 334 253 252 300 276 289 337 8 44 7 315 329 324 316 316 219 185 208 248 273 220 160 132 260 228 318 342 328 303 321 349 304 168 137 152 264 315 22 140 147 122 129 132 53 282 270 286 256 266 278 229 186 257 269 270 268 264 286 312 319 309 341 33 30 34 45 52 150 213
355 55 97 7 19 13 8 5 360 1 2 2 10 50 67 73 234 237 273 269 247 312 336 297 308 346 35 59 344 331 22 330 326 351 351 33 238 269 302 284 171 140 164 151 166 185 279 306 292 188 279 306 119 154 173 169 164 196 174 135 146 153 159 229 228 209 247 274 296 294 220 188 173 259 267 263 293 7 34 48 55 56 52 50 51 54 60 182
2 348 303 305 4 5 357 353 350 354 355 359 30 73 97 218 250 243 245 258 288 335 322 333 20 26 9 355 308 5 57 285 327 12 27 46 162 231 257 281 288 117 124 152 235 180 134 259 253 262 280 114 115 206 175 128 101 249 165 111 154 180 161 187 197 182 190 266 295 287 237 216 184 256 286 279 315 34 48 52 54 53 53 54 49 47 52 58
356 348 320 303 344 358 350 343 342 345 347 7 51 74 180 213 227 184 213 248 291 312 332 353 36 54 341 321 328 349 18 357 353 18 2 355 78 244 240 275 312 139 148 161 207 175 117 266 275 314 343 91 125 228 235 109 144 238 105 173 239 184 131 126 281 1 82 93 277 260 244 291 344 297 316 345 30 27 28 43 48 47 52 53 45 41 47 51
349 345 335 303 319 342 339 337 338 334 339 40 79 191 227 217 204 196 218 329 263 39 65 25 348 44 325 326 322 323 351 12 7 18 342 335 349 309 302 305 346 39 198 186 220 204 148 257 288 325 158 292 41 78 34 9 96 121 167 229 242 47 88 110 172 356 44 213 275 283 209 277 337 203 313 1 43 30 20 38 42 41 47 49 43 40 42 45
344 341 356 346 334 333 331 335 335 325 340 64 68 251 233 241 239 246 307 304 253 67 83 121 273 131 158 305 285 299 345 3 349 0 335 325 306 272 332 312 354 11 356 160 176 327 120 229 289 293 170 297 355 82 31 347 29 106 165 197 108 100 295 9 115 194 285 234 282 308 257 240 216 213 242 106 103 59 36 44 46 42 45 47 43 41 40 42
336 335 57 31 344 331 336 335 325 321 24 68 302 253 242 257 309 352 357 338 189 87 91 202 215 18 239 189 230 286 350 16 351 356 334 329 310 330 57 3 319 358 10 93 125 325 64 142 278 297 262 298 355 52 203 317 353 32 59 26 38 133 168 202 128 169 205 218 250 302 313 266 236 213 166 164 165 126 84 61 60 56 54 52 46 42 41 40
340 345 125 42 307 311 342 337 323 354 68 173 204 221 271 272 321 355 9 8 335 117 155 213 182 299 266 228 216 266 3 74 166 335 240 300 318 336 24 20 323 343 4 53 87 350 30 85 254 294 318 314 330 290 167 175 318 19 22 356 346 23 96 329 290 137 148 180 200 240 284 270 254 213 160 161 170 157 128 101 87 70 66 58 46 42 39 36
357 1 180 271 268 289 340 348 353 69 97 218 209 229 307 314 307 339 5 9 347 276 152 174 172 188 206 184 252 227 35 329 213 164 236 293 320 311 6 11 350 321 352 28 41 26 32 124 202 289 335 310 256 240 190 182 170 149 178 227 211 190 81 322 289 309 117 170 182 165 228 268 266 255 191 159 165 182 145 113 88 49 50 50 45 44 40 34
358 350 271 281 263 289 342 3 3 22 124 111 318 280 299 314 301 319 349 5 359 335 62 122 167 178 173 182 218 182 93 302 243 184 216 251 141 197 344 6 11 356 33 33 308 254 139 101 112 256 260 243 261 269 248 222 154 119 142 153 123 119 109 147 218 263 283 226 157 129 169 270 269 291 275 176 167 184 142 96 78 55 41 36 34 35 34 34
342 323 295 285 277 305 353 2 344 358 98 311 316 287 298 310 325 345 346 3 1 338 4 26 203 210 189 186 164 136 110 197 234 220 224 246 97 50 5 9 11 14 52 20 306 327 83 80 71 295 292 307 303 312 353 17 89 90 49 51 90 101 114 153 180 181 206 227 148 126 243 264 276 315 300 192 172 161 109 62 69 67 46 36 31 26 25 26
332 312 291 309 309 301 314 203 308 331 298 322 337 317 314 302 338 4 340 316 320 287 16 328 239 201 194 125 106 166 173 143 236 245 234 233 203 40 20 12 12 21 36 312 252 318 341 293 108 0 327 336 336 344 353 343 47 102 352 22 83 86 80 92 105 87 229 232 161 159 230 243 263 313 319 297 341 3 2 43 77 58 45 48 45 34 26 23
334 309 294 346 352 7 95 95 108 184 275 331 328 304 313 294 327 337 302 292 307 243 201 302 246 124 37 40 61 24 131 119 246 268 18 312 241 31 17 10 19 18 3 30 35 17 235 216 151 140 239 246 282 287 272 286 318 73 125 105 37 21 65 14 53 89 253 258 161 165 219 256 284 307 313 311 331 338 325 317 82 55 51 57 52 41 31 26
349 331 315 350 22 65 82 63 52 68 305 0 327 290 287 243 302 314 300 331 11 13 50 12 350 53 39 33 49 17 6 29 4 8 26 334 284 347 357 6 27 18 13 26 16 9 127 88 176 157 178 205 210 232 230 196 224 273 256 199 233 263 134 109 106 156 204 223 239 215 195 241 277 272 278 289 293 293 285 280 14 60 74 71 61 52 38 30
12 30 348 349 7 49 70 43 31 25 316 347 302 278 294 285 309 326 320 46 32 27 63 45 20 40 38 27 76 46 343 339 5 44 74 303 264 300 335 359 35 19 19 23 10 17 103 359 271 170 195 219 209 230 253 245 229 242 245 220 211 217 165 125 171 217 179 169 267 250 188 211 251 238 256 294 290 269 267 295 0 49 72 61 53 45 30 19
20 41 70 41 334 346 59 2 355 350 320 283 236 304 334 330 326 318 308 0 31 27 49 43 21 32 21 37 104 149 339 354 1 11 207 314 309 322 341 353 41 23 22 19 13 45 115 290 265 200 255 259 231 240 257 263 244 228 222 215 207 213 201 187 213 211 162 186 250 241 198 219 238 229 251 276 277 278 291 330 15 55 47 29 24 21 13 5
24 11 35 19 317 244 286 317 321 343 352 336 342 8 7 351 335 297 299 349 15 10 34 106 332 352 30 77 110 140 232 168 328 306 244 349 353 354 350 327 2 30 30 18 5 45 117 264 275 245 307 303 282 266 257 250 253 251 244 229 213 214 213 212 225 207 185 220 248 239 231 243 238 218 232 257 276 286 296 358 74 59 28 15 11 11 12 12
32 23 344 344 332 309 323 328 336 46 20 5 4 349 359 10 351 318 319 8 352 324 26 107 246 271 128 99 102 141 201 183 179 241 203 102 358 287 254 265 263 9 23 21 342 19 56 275 294 50 6 302 294 307 309 265 234 246 256 237 203 212 228 233 235 201 198 242 255 256 263 265 256 223 229 256 275 275 132 107 77 39 17 7 10 14 13 9
52 44 356 343 334 341 350 347 9 78 38 10 5 327 340 358 339 317 316 41 84 115 38 186 232 298 41 61 92 187 216 187 177 217 212 185 218 222 206 212 232 343 0 13 298 3 43 295 338 42 347 279 288 318 309 318 300 254 245 213 194 207 221 222 210 191 192 217 247 270 276 266 263 237 230 268 298 127 123 80 33 20 14 19 27 21 4 351
43 32 345 349 311 338 3 358 8 62 56 347 348 330 314 311 325 337 349 38 66 66 333 218 191 87 8 16 39 237 233 213 225 257 256 245 243 228 229 257 260 240 231 183 238 228 156 169 294 74 271 269 278 297 304 350 336 273 238 194 196 211 220 227 244 227 200 185 203 234 236 237 237 175 149 338 14 99 156 324 337 343 14 51 37 11 353 340